Location: Moena
(46.3667°N, 11.6500°E)
Time: 14:37:46
(UTC+00:00)

Cosmos 2333 Rocket - Pass Details

Date: 23 June 2021
Orbit: 841 x 861 km, 70.8° (Epoch: 26 July)

Event Time Altitude Azimuth Distance (km) Brightness Sun altitude
Rises 19:39:26 0° 189° (S) 3,420 5.0 -4.8°
Reaches altitude 10° 19:41:56 10° 185° (S) 2,486 4.3 -5.1°
Maximum altitude 19:47:27 53° 110° (ESE) 1,048 2.4 -5.8°
Drops below altitude 10° 19:53:00 10° 35° (NE) 2,491 4.8 -6.5°
Sets 19:55:30 0° 31° (NNE) 3,428 5.6 -6.8°
